Location: Bernadets
(43.3537°N, 0.3167°E)
Time: 03:32:31
(UTC+00:00)

Cosmos 1953 - Pass Details

Date: 24 October 2021
Orbit: 537 x 557 km, 82.5° (Epoch: 29 November)

Event Time Altitude Azimuth Distance (km) Brightness Sun altitude
Rises 17:28:09 0° 187° (S) 2,725 6.1 -5.6°
Reaches altitude 10° 17:30:18 10° 188° (S) 1,836 5.3 -6.0°
Maximum altitude 17:34:21 87° 277° (W) 565 2.4 -6.7°
Drops below altitude 10° 17:38:27 10° 8° (N) 1,852 4.8 -7.4°
Sets 17:40:38 0° 8° (N) 2,751 5.7 -7.8°
